User: anonymous   Login
Location: Charleston
(38.3500°N, 81.6330°W)
Time: 04:59:48
(UTC-05:00)
Language:

Cosmos 2228 - Orbit

View from above orbital plane
View from above orbital plane
View from above satellite
View from above satellite

Ground track
Ground track

The orbit data is extracted from the following two-line orbital elements,

1 22286U 92094A   17017.91839465  .00000208  00000-0  20101-4 0  9993
2 22286  82.5222 155.7725 0019195 259.4125 100.4931 14.87593385300158
Epoch (UTC): 17 January 2017 22:02:29
Eccentricity: 0.0019195
inclination: 82.5222°
perigee height: 592 km
apogee height: 619 km
right ascension of ascending node: 155.7725°
argument of perigee: 259.4125°
revolutions per day: 14.87593385
mean anomaly at epoch: 100.4931°
orbit number at epoch: 30015

The dashed part of the orbit path shows where the satellite is in the earth's shadow,  

DLR